Location: Dal�� Lhota
(48.7500°N, 14.0167°E)
Time: 03:54:02
(UTC+00:00)

Transit 2A - Pass Details

Date: 27 July 2021
Orbit: 594 x 964 km, 66.7° (Epoch: 21 September)

Event Time Altitude Azimuth Distance (km) Brightness Sun altitude
Rises 09:50:53 0° 294° (WNW) 2,942 8.7 56.3°
Reaches altitude 10° 09:55:04 10° 332° (NNW) 2,115 8.1 56.7°
Maximum altitude 09:56:20 11° 347° (NNW) 2,081 8.1 56.8°
Drops below altitude 10° 09:57:37 10° 3° (N) 2,172 8.2 56.9°
Sets 10:02:10 0° 39° (NE) 3,206 9.1 57.3°
